Home   Weather   Kreuztal   Past weeks

Flag for Germany Past Weather in Kreuztal, North Rhine-Westphalia, Germany — Yesterday and Last 2 Weeks

Now
39 °F

Passing clouds.


Feels Like: 32 °F
Forecast: 32 / 44 °F
Wind: 10 mph from Southwest

Location: Hessen

Current Time: Dec 8, 2016 at 3:22:46 pm

Latest Report: Dec 8, 2016 at 2:50 pm


Visibility: N/A

Pressure: 30.36 "Hg

Humidity: 70%

Dew Point: 30 °F

Location of KreuztalLocation

Past Weather in Kreuztal — Graph

°F

Kreuztal Temperature Yesterday

Maximum temperature yesterday: 43 °F (at 1:50 pm)
Minimum temperature yesterday: 21 °F (at 7:50 am)
Average temperature yesterday: 36 °F

High & Low Weather Summary for the Past Weeks

 TemperatureHumidityPressure
High55 °F (Nov 23, 1:20 pm)100% (Nov 24, 6:50 pm)30.48 "Hg (Nov 24, 6:50 pm)
Low21 °F (Nov 29, 7:20 am)44% (Nov 30, 2:20 pm)30.01 "Hg (Nov 26, 2:50 pm)
Average35 °F82%30.25 "Hg
* Reported Nov 23 1:20 pm — Dec 8 1:50 pm, Kreuztal, Weather by CustomWeather, © 2016

Note: Actual official high and low records may vary slightly from our data, if they occured in-between our weather recording intervals... More about our weather records

Advertising

Kreuztal Weather History for the Previous 24 Hours

Scroll right to see more
 ConditionsComfort  
Time TempWeatherWind HumidityBarometerVisibility
1:50 pm
Thu, Dec 8
39 °FPassing clouds.10 mph70%30.36 "HgN/A
1:20 pm39 °FSunny.13 mph70%30.36 "Hg10 mi
12:50 pm41 °FSunny.13 mph66%30.39 "Hg10 mi
12:20 pm41 °FSunny.13 mph70%30.39 "Hg10 mi
11:50 am39 °FSunny.14 mph70%30.39 "Hg10 mi
11:20 am41 °FSunny.14 mph66%30.42 "Hg10 mi
10:50 am41 °FSunny.14 mph61%30.42 "Hg10 mi
10:20 am41 °FSunny.13 mph61%30.42 "Hg10 mi
9:50 am39 °FSunny.12 mph65%30.42 "Hg10 mi
9:20 am39 °FSunny.10 mph65%30.45 "Hg10 mi
8:50 am39 °FSunny.9 mph65%30.42 "Hg10 mi
8:20 am41 °FSunny.9 mph57%30.42 "Hg10 mi
7:50 am39 °FClear.10 mph61%30.42 "Hg10 mi
8:50 pm
Wed, Dec 7
39 °FClear.9 mph75%30.45 "Hg10 mi
8:20 pm43 °FClear.8 mph71%30.48 "Hg10 mi
7:50 pm41 °FLight fog.7 mph76%30.45 "HgN/A
7:20 pm41 °FLight fog.6 mph76%30.45 "HgN/A
6:50 pm39 °FLight fog.7 mph75%30.45 "HgN/A
6:20 pm41 °FLight fog.6 mph76%30.45 "HgN/A
5:50 pm41 °FLight fog.7 mph76%30.45 "HgN/A
5:20 pm39 °FLight fog.9 mph75%30.45 "HgN/A
4:50 pm39 °FLight fog.10 mph75%30.42 "HgN/A
4:20 pm39 °FLight fog.8 mph75%30.45 "HgN/A
3:50 pm39 °FLight fog.9 mph75%30.45 "HgN/A
3:20 pm41 °FPartly sunny.7 mph76%30.45 "HgN/A
Weather by CustomWeather, © 2016

See weather overviewHow to use our weather pages